International Skating Union - Official Site

ESSENT ISU EUROPEAN SPEED SKATING CHAMPIONSHIPS 2012
January 6-8, 2012

Draw | Lap Times | Index | Classification

Referee: Jacques  DE KONING  (NED)
Starter: Bernhard  MAYER  (GER)
StartTime: EndTime: Air Temp: Ice Temp: Humidity:
13:05 14:24 7℃ -6℃ 49%
Result 5000m Ladies
Rankings as of Jan 9 2012 8:54PM
Rank: No.: Name: Nation: Time: Behind: Points:
1 6 Martina  SÁBLIKOVÁ CZE CZE 7:22.38200m - 21.04 - (21.0)
600m - 53.98 - (32.9)
1000m - 1:28.23 - (34.2)
1400m - 2:03.15 - (34.9)
1800m - 2:37.61 - (34.4)
2200m - 3:12.88 - (35.2)
2600m - 3:48.54 - (35.6)
3000m - 4:23.40 - (34.8)
3400m - 4:58.97 - (35.5)
3800m - 5:34.80 - (35.8)
4200m - 6:10.34 - (35.5)
4600m - 6:46.18 - (35.8)
5000m - 7:22.38 - (36.2)
44.238
2 13 Claudia  PECHSTEIN GER GER 7:34.51200m - 20.81 - (20.8)
600m - 54.62 - (33.8)
1000m - 1:29.27 - (34.6)
1400m - 2:04.31 - (35.0)
1800m - 2:39.55 - (35.2)
2200m - 3:15.97 - (36.4)
2600m - 3:52.94 - (36.9)
3000m - 4:29.31 - (36.3)
3400m - 5:05.88 - (36.5)
3800m - 5:42.88 - (37.0)
4200m - 6:19.92 - (37.0)
4600m - 6:57.40 - (37.4)
5000m - 7:34.51 - (37.1)
12.13 45.451
3 19 Ireen  WÜST NED NED 7:43.59200m - 20.74 - (20.7)
600m - 55.28 - (34.5)
1000m - 1:31.87 - (36.5)
1400m - 2:08.30 - (36.4)
1800m - 2:44.76 - (36.4)
2200m - 3:20.92 - (36.1)
2600m - 3:57.10 - (36.1)
3000m - 4:34.84 - (37.7)
3400m - 5:13.05 - (38.2)
3800m - 5:50.34 - (37.2)
4200m - 6:27.35 - (37.0)
4600m - 7:05.43 - (38.0)
5000m - 7:43.59 - (38.1)
21.21 46.359
4 17 Linda  de VRIES NED NED 7:45.27200m - 20.45 - (20.4)
600m - 54.08 - (33.6)
1000m - 1:30.61 - (36.5)
1400m - 2:07.37 - (36.7)
1800m - 2:45.28 - (37.9)
2200m - 3:21.79 - (36.5)
2600m - 3:58.26 - (36.4)
3000m - 4:35.69 - (37.4)
3400m - 5:13.30 - (37.6)
3800m - 5:50.62 - (37.3)
4200m - 6:29.18 - (38.5)
4600m - 7:06.87 - (37.6)
5000m - 7:45.27 - (38.4)
22.89 46.527
5 15 Diane  VALKENBURG NED NED 7:48.04200m - 21.48 - (21.4)
600m - 56.89 - (35.4)
1000m - 1:34.02 - (37.1)
1400m - 2:11.05 - (37.0)
1800m - 2:47.98 - (36.9)
2200m - 3:24.10 - (36.1)
2600m - 4:00.21 - (36.1)
3000m - 4:37.66 - (37.4)
3400m - 5:15.77 - (38.1)
3800m - 5:53.14 - (37.3)
4200m - 6:30.01 - (36.8)
4600m - 7:08.42 - (38.4)
5000m - 7:48.04 - (39.6)
25.66 46.804
6 28 Olga  GRAF RUS RUS 7:52.54200m - 22.32 - (22.3)
600m - 58.12 - (35.8)
1000m - 1:34.67 - (36.5)
1400m - 2:12.40 - (37.7)
1800m - 2:49.85 - (37.4)
2200m - 3:27.21 - (37.3)
2600m - 4:04.90 - (37.6)
3000m - 4:43.06 - (38.1)
3400m - 5:21.08 - (38.0)
3800m - 5:58.18 - (37.1)
4200m - 6:35.41 - (37.2)
4600m - 7:13.77 - (38.3)
5000m - 7:52.54 - (38.7)
30.16 47.254
7 12 Isabell  OST GER GER 7:55.11200m - 21.18 - (21.1)
600m - 54.98 - (33.7)
1000m - 1:31.46 - (36.4)
1400m - 2:08.52 - (37.0)
1800m - 2:47.50 - (38.9)
2200m - 3:24.48 - (36.9)
2600m - 4:02.69 - (38.2)
3000m - 4:40.23 - (37.5)
3400m - 5:18.67 - (38.4)
3800m - 5:57.56 - (38.9)
4200m - 6:36.46 - (38.8)
4600m - 7:15.85 - (39.3)
5000m - 7:55.11 - (39.2)
32.73 47.511
8 23 Natalia  CZERWONKA POL POL 7:56.18200m - 21.46 - (21.4)
600m - 55.47 - (34.0)
1000m - 1:30.94 - (35.4)
1400m - 2:07.92 - (36.9)
1800m - 2:46.00 - (38.0)
2200m - 3:23.67 - (37.6)
2600m - 4:01.72 - (38.0)
3000m - 4:40.18 - (38.4)
3400m - 5:18.95 - (38.7)
3800m - 5:58.26 - (39.3)
4200m - 6:36.12 - (37.8)
4600m - 7:15.96 - (39.8)
5000m - 7:56.18 - (40.2)
33.80 47.618
9 18 Annouk  van der WEIJDEN NED NED 8:00.32200m - 21.02 - (21.0)
600m - 55.80 - (34.7)
1000m - 1:32.58 - (36.7)
1400m - 2:10.18 - (37.5)
1800m - 2:48.32 - (38.1)
2200m - 3:25.92 - (37.6)
2600m - 4:04.64 - (38.7)
3000m - 4:44.01 - (39.3)
3400m - 5:23.57 - (39.5)
3800m - 6:01.84 - (38.2)
4200m - 6:41.40 - (39.5)
4600m - 7:20.83 - (39.4)
5000m - 8:00.32 - (39.4)
37.94 48.032
10 31 Yuliya  SKOKOVA RUS RUS 8:02.16200m - 21.41 - (21.4)
600m - 56.47 - (35.0)
1000m - 1:33.88 - (37.4)
1400m - 2:12.09 - (38.2)
1800m - 2:51.63 - (39.5)
2200m - 3:29.93 - (38.3)
2600m - 4:08.00 - (38.0)
3000m - 4:46.78 - (38.7)
3400m - 5:25.54 - (38.7)
3800m - 6:03.77 - (38.2)
4200m - 6:42.35 - (38.5)
4600m - 7:22.07 - (39.7)
5000m - 8:02.16 - (40.0)
39.78 48.216
11 25 Katarzyna  WOZNIAK POL POL 8:08.95200m - 21.76 - (21.7)
600m - 57.66 - (35.9)
1000m - 1:35.48 - (37.8)
1400m - 2:13.86 - (38.3)
1800m - 2:52.12 - (38.2)
2200m - 3:30.12 - (38.0)
2600m - 4:08.60 - (38.4)
3000m - 4:48.50 - (39.8)
3400m - 5:29.25 - (40.7)
3800m - 6:08.76 - (39.5)
4200m - 6:49.07 - (40.3)
4600m - 7:29.96 - (40.8)
5000m - 8:08.95 - (38.9)
46.57 48.895
12 20 Hege  BØKKO NOR NOR 8:35.95200m - 21.84 - (21.8)
600m - 57.10 - (35.2)
1000m - 1:34.23 - (37.1)
1400m - 2:11.17 - (36.9)
1800m - 2:49.60 - (38.4)
2200m - 3:44.59 - (55.0)
2600m - 4:26.95 - (42.3)
3000m - 5:07.95 - (41.0)
3400m - 5:48.94 - (40.9)
3800m - 6:29.55 - (40.6)
4200m - 7:11.97 - (42.4)
4600m - 7:54.50 - (42.5)
5000m - 8:35.95 - (41.4)
73.57 51.595